^^
Station Historical Data
Daily Summary for January 25, 2018 Units:  Metric    English   Both
« Previous Day
Next Day »
Daily Weekly Monthly Yearly Custom
  High: Low: Average:
Temperature: -17.8 °C -16.6 °C -15.8 °C
Dew Point: -17.8 °C -17.2 °C -16.3 °C
Humidity: Humidity% 92% 93%
Wind Speed: 0km/h 0km/h 6km/h
Wind Gust: 0km/h - -
Wind- - SSW
Pressure: 0 hPa 33639.9 hPa -
Precipitation: 251.46 mm    
Historical Graphs
 
 
Tabular Data for January 25, 2018
Time Temperature Dew Point Pressure Wind Wind Speed Wind Gust Humidity Rainfall Rate (Hourly) solar Conditions
-17.8 °C -17.8 °C 0 hPa Calm     Humidity% 0 mm SoftwareType W/m2 Conditions
00:00 -16.4 °C -16.9 °C 33809.2 hPa South 0.5 km/h 15 km/h 94% 0 mm WeatherDisplay:10.37 W/m2 FEW
00:05 -16.4 °C -16.9 °C 33799.1 hPa SE 9.7 km/h 15 km/h 94% 0 mm WeatherDisplay:10.37 W/m2 RA
00:10 -16.4 °C -16.9 °C 33799.1 hPa North 6.3 km/h 11.9 km/h 94% 7.62 mm WeatherDisplay:10.37 W/m2 RA
00:15 -16.3 °C -16.8 °C 33799.1 hPa SSW 6.9 km/h 29.8 km/h 94% 7.62 mm WeatherDisplay:10.37 W/m2 RA
00:20 -16.3 °C -16.8 °C 33799.1 hPa SSW 4.3 km/h 4.3 km/h 94% 7.62 mm WeatherDisplay:10.37 W/m2 FEW
00:25 -16.3 °C -16.8 °C 33788.9 hPa ENE 2.3 km/h 17.9 km/h 94% 12.7 mm WeatherDisplay:10.37 W/m2 RA
00:30 -16.3 °C -16.8 °C 33788.9 hPa SSE 8.5 km/h 17.9 km/h 94% 12.7 mm WeatherDisplay:10.37 W/m2 RA
00:35 -16.3 °C -16.8 °C 33788.9 hPa NNE 5.1 km/h 23.8 km/h 94% 12.7 mm WeatherDisplay:10.37 W/m2 FEW
00:40 -16.3 °C -16.8 °C 33788.9 hPa SE 1.8 km/h 32.8 km/h 94% 12.7 mm WeatherDisplay:10.37 W/m2 FEW
00:45 -16.2 °C -16.7 °C 33788.9 hPa South 15.6 km/h 23.3 km/h 94% 12.7 mm WeatherDisplay:10.37 W/m2 RA
00:50 -16.2 °C -16.6 °C 33775.4 hPa SE 7.6 km/h 26.9 km/h 94% 12.7 mm WeatherDisplay:10.37 W/m2 RA
00:55 -16.1 °C -16.6 °C 33775.4 hPa South 14.2 km/h 14.2 km/h 94% 12.7 mm WeatherDisplay:10.37 W/m2 FEW
01:00 -16.1 °C -16.6 °C 33775.4 hPa South 11.4 km/h 11.9 km/h 94% 20.32 mm WeatherDisplay:10.37 W/m2 RA
01:05 -16.1 °C -16.4 °C 33765.2 hPa WSW 12.2 km/h 20.8 km/h 95% 20.32 mm WeatherDisplay:10.37 W/m2 RA
01:10 -16 °C -16.4 °C 33765.2 hPa SSW 13.5 km/h 33.6 km/h 95% 12.7 mm WeatherDisplay:10.37 W/m2 FEW
01:15 -15.9 °C -16.4 °C 33765.2 hPa South 14.8 km/h 47.6 km/h 94% 12.7 mm WeatherDisplay:10.37 W/m2 FEW
01:20 -15.9 °C -16.4 °C 33751.6 hPa SW 10.3 km/h 35.7 km/h 94% 20.32 mm WeatherDisplay:10.37 W/m2 RA
01:25 -15.9 °C -16.4 °C 33751.6 hPa SW 17.4 km/h 47.6 km/h 94% 12.7 mm WeatherDisplay:10.37 W/m2 RA
01:30 -15.9 °C -16.4 °C 33751.6 hPa WSW 19.2 km/h 19.2 km/h 94% 20.32 mm WeatherDisplay:10.37 W/m2 RA
01:35 -15.9 °C -16.4 °C 33751.6 hPa South 9.7 km/h 33.6 km/h 94% 20.32 mm WeatherDisplay:10.37 W/m2 RA
01:41 -15.9 °C -16.3 °C 33751.6 hPa East 11.6 km/h 18.2 km/h 95% 20.32 mm WeatherDisplay:10.37 W/m2 FEW
01:46 -15.9 °C -16.4 °C 33751.6 hPa South 22.2 km/h 68.6 km/h 94% 20.32 mm WeatherDisplay:10.37 W/m2 RA
01:51 -15.9 °C -16.4 °C 33741.5 hPa SSE 12.7 km/h 38.8 km/h 94% 20.32 mm WeatherDisplay:10.37 W/m2 RA
01:56 -15.9 °C -16.4 °C 33741.5 hPa SE 10.9 km/h 23.8 km/h 94% 20.32 mm WeatherDisplay:10.37 W/m2 FEW
02:01 -15.9 °C -16.4 °C 33741.5 hPa SSW 5.1 km/h 26.9 km/h 94% 12.7 mm WeatherDisplay:10.37 W/m2 FEW
02:06 -15.9 °C -16.4 °C 33731.3 hPa NE 10.9 km/h 23.8 km/h 94% 20.32 mm WeatherDisplay:10.37 W/m2 RA
02:11 -15.9 °C -16.4 °C 33731.3 hPa South 11.6 km/h 20.9 km/h 94% 20.32 mm WeatherDisplay:10.37 W/m2 RA
02:16 -15.9 °C -16.4 °C 33731.3 hPa North 14.8 km/h 29.8 km/h 94% 12.7 mm WeatherDisplay:10.37 W/m2 FEW
02:21 -15.9 °C -16.3 °C 33731.3 hPa SSE 11.1 km/h 23.8 km/h 95% 12.7 mm WeatherDisplay:10.37 W/m2 FEW
02:26 -15.8 °C -16.2 °C 33731.3 hPa South 9.8 km/h 23.3 km/h 95% 12.7 mm WeatherDisplay:10.37 W/m2 FEW
02:31 -15.8 °C -16.2 °C 33717.8 hPa SE 12.7 km/h 36.2 km/h 95% 12.7 mm WeatherDisplay:10.37 W/m2 FEW
02:36 -15.8 °C -16.2 °C 33717.8 hPa SSW 12.2 km/h 29.8 km/h 95% 12.7 mm WeatherDisplay:10.37 W/m2 FEW
02:41 -15.8 °C -16.3 °C 33717.8 hPa SW 5.1 km/h 35.7 km/h 94% 12.7 mm WeatherDisplay:10.37 W/m2 RA
02:46 -15.8 °C -16.2 °C 33731.3 hPa WSW 6 km/h 20.9 km/h 95% 12.7 mm WeatherDisplay:10.37 W/m2 RA
02:51 -15.7 °C -16.2 °C 33731.3 hPa SSW 14.5 km/h 23.8 km/h 94% 12.7 mm WeatherDisplay:10.37 W/m2 FEW
02:56 -15.7 °C -16.2 °C 33717.8 hPa WSW 7.6 km/h 32.8 km/h 94% 12.7 mm WeatherDisplay:10.37 W/m2 FEW
03:01 -15.7 °C -16.2 °C 33717.8 hPa WNW 10.6 km/h 20.9 km/h 94% 12.7 mm WeatherDisplay:10.37 W/m2 FEW
03:06 -15.7 °C -16.2 °C 33707.6 hPa SSE 14.5 km/h 29.8 km/h 94% 12.7 mm WeatherDisplay:10.37 W/m2 RA
03:11 -15.7 °C -16.2 °C 33717.8 hPa SSE 10.3 km/h 38.8 km/h 94% 12.7 mm WeatherDisplay:10.37 W/m2 RA
03:16 -15.7 °C -16.2 °C 33707.6 hPa SSE 12.7 km/h 23.8 km/h 94% 12.7 mm WeatherDisplay:10.37 W/m2 FEW
03:21 -15.7 °C -16.2 °C 33707.6 hPa ESE 2.6 km/h 15 km/h 94% 12.7 mm WeatherDisplay:10.37 W/m2 RA
03:26 -15.7 °C -16.2 °C 33694.1 hPa SSE 12.7 km/h 25.9 km/h 94% 12.7 mm WeatherDisplay:10.37 W/m2 RA
03:31 -15.7 °C -16.2 °C 33694.1 hPa South 22.2 km/h 50.7 km/h 94% 12.7 mm WeatherDisplay:10.37 W/m2 FEW
03:36 -15.7 °C -16.2 °C 33694.1 hPa NNE 5.6 km/h 15 km/h 94% 12.7 mm WeatherDisplay:10.37 W/m2 FEW
03:41 -15.7 °C -16.2 °C 33694.1 hPa SE 5.5 km/h 9 km/h 94% 12.7 mm WeatherDisplay:10.37 W/m2 FEW
03:46 -15.8 °C -16.3 °C 33694.1 hPa SE 11.4 km/h 31.1 km/h 94% 12.7 mm WeatherDisplay:10.37 W/m2 RA
03:51 -15.7 °C -16.2 °C 33694.1 hPa SSE 3.7 km/h 26.9 km/h 94% 12.7 mm WeatherDisplay:10.37 W/m2 RA
03:56 -15.7 °C -16.2 °C 33683.9 hPa WNW 12.2 km/h 32.8 km/h 94% 25.4 mm WeatherDisplay:10.37 W/m2 RA
04:01 -15.8 °C -16.3 °C 33683.9 hPa NE 9.7 km/h 23.8 km/h 94% 33.02 mm WeatherDisplay:10.37 W/m2 RA
04:06 -15.7 °C -16.2 °C 33683.9 hPa South 5.1 km/h 10.3 km/h 94% 33.02 mm WeatherDisplay:10.37 W/m2 RA
04:11 -15.7 °C -16.2 °C 33683.9 hPa NNW 6.8 km/h 23.8 km/h 94% 33.02 mm WeatherDisplay:10.37 W/m2 RA
04:16 -15.7 °C -16.2 °C 33683.9 hPa SE 10.3 km/h 26.9 km/h 94% 38.1 mm WeatherDisplay:10.37 W/m2 RA
04:21 -15.8 °C -16.3 °C 33673.8 hPa SSW 10.9 km/h 26.9 km/h 94% 33.02 mm WeatherDisplay:10.37 W/m2 RA
04:26 -15.8 °C -16.3 °C 33673.8 hPa North 14.5 km/h 44.7 km/h 94% 33.02 mm WeatherDisplay:10.37 W/m2 FEW
04:31 -15.8 °C -16.3 °C 33673.8 hPa NNW 3.9 km/h 23.8 km/h 94% 38.1 mm WeatherDisplay:10.37 W/m2 RA
04:36 -15.8 °C -16.3 °C 33673.8 hPa South 7.2 km/h 26.9 km/h 94% 38.1 mm WeatherDisplay:10.37 W/m2 RA
04:41 -15.8 °C -16.3 °C 33673.8 hPa WNW 9.3 km/h 11.9 km/h 94% 38.1 mm WeatherDisplay:10.37 W/m2 FEW
04:46 -15.8 °C -16.3 °C 33660.2 hPa SSE 11.9 km/h 17.9 km/h 94% 38.1 mm WeatherDisplay:10.37 W/m2 RA
04:51 -15.8 °C -16.3 °C 33660.2 hPa SW 14 km/h 35.7 km/h 94% 38.1 mm WeatherDisplay:10.37 W/m2 RA
04:56 -15.8 °C -16.3 °C 33660.2 hPa WSW 7.2 km/h 15 km/h 94% 33.02 mm WeatherDisplay:10.37 W/m2 RA
05:01 -15.8 °C -16.3 °C 33660.2 hPa NW 9.8 km/h 26.9 km/h 94% 25.4 mm WeatherDisplay:10.37 W/m2 RA
05:06 -15.8 °C -16.3 °C 33660.2 hPa SSW 15.8 km/h 29.8 km/h 94% 33.02 mm WeatherDisplay:10.37 W/m2 RA
05:11 -15.8 °C -16.3 °C 33660.2 hPa SSW 13.2 km/h 28.5 km/h 94% 33.02 mm WeatherDisplay:10.37 W/m2 RA
05:16 -15.8 °C -16.3 °C 33660.2 hPa SE 13.5 km/h 20.9 km/h 94% 33.02 mm WeatherDisplay:10.37 W/m2 RA
05:21 -15.7 °C -16.2 °C 33660.2 hPa South 11.4 km/h 29.8 km/h 94% 38.1 mm WeatherDisplay:10.37 W/m2 RA
05:26 -15.7 °C -16.2 °C 33660.2 hPa NE 6.3 km/h 17.9 km/h 94% 38.1 mm WeatherDisplay:10.37 W/m2 RA
05:31 -15.7 °C -16.2 °C 33660.2 hPa SE 15.3 km/h 35.7 km/h 94% 38.1 mm WeatherDisplay:10.37 W/m2 RA
05:36 -15.7 °C -16.2 °C 33650.1 hPa NNW 9.8 km/h 17.9 km/h 94% 38.1 mm WeatherDisplay:10.37 W/m2 RA
05:41 -15.7 °C -16.2 °C 33650.1 hPa SW 6.8 km/h 17.9 km/h 94% 38.1 mm WeatherDisplay:10.37 W/m2 RA
05:46 -15.8 °C -16.3 °C 33650.1 hPa NE 8.5 km/h 17.9 km/h 94% 38.1 mm WeatherDisplay:10.37 W/m2 RA
05:51 -15.8 °C -16.3 °C 33650.1 hPa SE 7.2 km/h 15 km/h 94% 38.1 mm WeatherDisplay:10.37 W/m2 RA
05:56 -15.8 °C -16.3 °C 33650.1 hPa WSW 12.2 km/h 54.4 km/h 94% 38.1 mm WeatherDisplay:10.37 W/m2 RA
06:01 -15.8 °C -16.3 °C 33639.9 hPa SSE 13.2 km/h 29.8 km/h 94% 45.72 mm WeatherDisplay:10.37 W/m2 RA
06:06 -15.8 °C -16.3 °C 33639.9 hPa SSE 7.7 km/h 29.8 km/h 94% 38.1 mm WeatherDisplay:10.37 W/m2 RA
06:11 -15.8 °C -16.3 °C 33650.1 hPa ESE 14.5 km/h 20.9 km/h 94% 38.1 mm WeatherDisplay:10.37 W/m2 RA
06:16 -15.8 °C -16.3 °C 33639.9 hPa SE 9.3 km/h 23.8 km/h 94% 38.1 mm WeatherDisplay:10.37 W/m2 RA
06:21 -15.8 °C -16.3 °C 33639.9 hPa NNE 9 km/h 26.9 km/h 94% 38.1 mm WeatherDisplay:10.37 W/m2 RA
06:26 -15.8 °C -16.3 °C 33639.9 hPa SSW 11.6 km/h 31.1 km/h 94% 45.72 mm WeatherDisplay:10.37 W/m2 RA
06:31 -15.8 °C -16.3 °C 33639.9 hPa South 12.9 km/h 26.9 km/h 94% 38.1 mm WeatherDisplay:10.37 W/m2 RA
06:36 -15.8 °C -16.3 °C 33639.9 hPa South 7.7 km/h 23.8 km/h 94% 38.1 mm WeatherDisplay:10.37 W/m2 RA
06:41 -15.8 °C -16.3 °C 33639.9 hPa SE 0.5 km/h 11.9 km/h 94% 38.1 mm WeatherDisplay:10.37 W/m2 RA
06:46 -15.8 °C -16.3 °C 33639.9 hPa East 8 km/h 17.9 km/h 94% 38.1 mm WeatherDisplay:10.37 W/m2 RA
06:51 -15.8 °C -16.3 °C 33639.9 hPa WSW 12.9 km/h 26.9 km/h 94% 45.72 mm WeatherDisplay:10.37 W/m2 RA
06:56 -15.8 °C -16.3 °C 33639.9 hPa SSE 6 km/h 15 km/h 94% 45.72 mm WeatherDisplay:10.37 W/m2 RA
07:01 -15.8 °C -16.3 °C 33639.9 hPa SSE 9.8 km/h 17.9 km/h 94% 45.72 mm WeatherDisplay:10.37 W/m2 RA
07:06 -15.8 °C -16.3 °C 33639.9 hPa WSW 11.4 km/h 35.7 km/h 94% 45.72 mm WeatherDisplay:10.37 W/m2 RA
07:11 -15.8 °C -16.3 °C 33639.9 hPa SE 8.2 km/h 20.8 km/h 94% 45.72 mm WeatherDisplay:10.37 W/m2 RA
07:16 -15.8 °C -16.3 °C 33639.9 hPa ESE 10.9 km/h 33.6 km/h 94% 45.72 mm WeatherDisplay:10.37 W/m2 RA
07:21 -15.8 °C -16.3 °C 33639.9 hPa South 7.2 km/h 17.9 km/h 94% 50.8 mm WeatherDisplay:10.37 W/m2 RA
07:26 -15.8 °C -16.3 °C 33639.9 hPa NE 2.1 km/h 17.9 km/h 94% 38.1 mm WeatherDisplay:10.37 W/m2 RA
07:31 -15.8 °C -16.3 °C 33639.9 hPa North 2.3 km/h 26.9 km/h 94% 45.72 mm WeatherDisplay:10.37 W/m2 RA
07:36 -15.7 °C -16.2 °C 33639.9 hPa SE 2.1 km/h 11.9 km/h 94% 45.72 mm WeatherDisplay:10.37 W/m2 RA
07:41 -15.7 °C -16.2 °C 33639.9 hPa SW 6.4 km/h 11.9 km/h 94% 45.72 mm WeatherDisplay:10.37 W/m2 RA
07:46 -15.7 °C -16.2 °C 33639.9 hPa SE 9.3 km/h 17.9 km/h 94% 45.72 mm WeatherDisplay:10.37 W/m2 RA
07:51 -15.7 °C -16.2 °C 33639.9 hPa SSE 8.2 km/h 9 km/h 94% 45.72 mm WeatherDisplay:10.37 W/m2 RA
07:56 -15.7 °C -16.2 °C 33639.9 hPa SSW 12.7 km/h 32.8 km/h 94% 45.72 mm WeatherDisplay:10.37 W/m2 RA
08:01 -15.8 °C -16.3 °C 33639.9 hPa SSE 10.9 km/h 20.8 km/h 94% 45.72 mm WeatherDisplay:10.37 W/m2 RA
08:06 -15.8 °C -16.3 °C 33639.9 hPa South 8.2 km/h 23.3 km/h 94% 50.8 mm WeatherDisplay:10.37 W/m2 RA
08:11 -15.7 °C -16.2 °C 33639.9 hPa SSW 6.8 km/h 15.6 km/h 94% 45.72 mm WeatherDisplay:10.37 W/m2 RA
08:16 -15.7 °C -16.2 °C 33639.9 hPa SW 1 km/h 10.3 km/h 94% 38.1 mm WeatherDisplay:10.37 W/m2 FEW
08:21 -15.7 °C -16.2 °C 33639.9 hPa SSW 7.7 km/h 17.9 km/h 94% 38.1 mm WeatherDisplay:10.37 W/m2 FEW
08:26 -15.7 °C -16.2 °C 33650.1 hPa WSW 6.3 km/h 15 km/h 94% 38.1 mm WeatherDisplay:10.37 W/m2 FEW
08:31 -15.7 °C -16.2 °C 33650.1 hPa ESE 10.3 km/h 23.8 km/h 94% 38.1 mm WeatherDisplay:10.37 W/m2 RA
08:36 -15.7 °C -16.2 °C 33639.9 hPa NW 3.1 km/h 20.9 km/h 94% 33.02 mm WeatherDisplay:10.37 W/m2 RA
08:41 -15.7 °C -16.2 °C 33639.9 hPa Calm   15 km/h 94% 33.02 mm WeatherDisplay:10.37 W/m2 FEW
08:46 -15.7 °C -16.2 °C 33650.1 hPa SSE 6.9 km/h 17.9 km/h 94% 25.4 mm WeatherDisplay:10.37 W/m2 FEW
08:51 -15.7 °C -16.2 °C 33650.1 hPa SSE 11.1 km/h 20.9 km/h 94% 20.32 mm WeatherDisplay:10.37 W/m2 FEW
08:56 -15.7 °C -16.2 °C 33639.9 hPa SSE 3.7 km/h 53.6 km/h 94% 12.7 mm WeatherDisplay:10.37 W/m2 FEW
09:01 -15.7 °C -16.2 °C 33639.9 hPa WSW 2.1 km/h 11.9 km/h 94% 12.7 mm WeatherDisplay:10.37 W/m2 FEW
09:06 -15.8 °C -16.3 °C 33650.1 hPa WSW 4.2 km/h 17.9 km/h 94% 7.62 mm WeatherDisplay:10.37 W/m2 FEW
09:11 -15.8 °C -16.3 °C 33650.1 hPa WSW 5 km/h 9 km/h 94% 7.62 mm WeatherDisplay:10.37 W/m2 FEW
09:16 -15.7 °C -16.2 °C 33650.1 hPa NNE 5.5 km/h 23.8 km/h 94% 7.62 mm WeatherDisplay:10.37 W/m2 FEW
09:21 -15.7 °C -16.2 °C 33650.1 hPa South 7.7 km/h 15 km/h 94% 7.62 mm WeatherDisplay:10.37 W/m2 FEW
09:26 -15.7 °C -16.2 °C 33650.1 hPa SE 1.8 km/h 17.9 km/h 94% 7.62 mm WeatherDisplay:10.37 W/m2 FEW
09:31 -15.8 °C -16.3 °C 33650.1 hPa SE 5.5 km/h 17.9 km/h 94% 0 mm WeatherDisplay:10.37 W/m2 FEW
09:36 -15.7 °C -16.2 °C 33650.1 hPa South 15.3 km/h 23.8 km/h 94% 0 mm WeatherDisplay:10.37 W/m2 FEW
09:41 -15.7 °C -16.2 °C 33650.1 hPa East 2.9 km/h 9 km/h 94% 0 mm WeatherDisplay:10.37 W/m2 FEW
09:46 -15.7 °C -16.2 °C 33650.1 hPa SSW 8.5 km/h 29.8 km/h 94% 0 mm WeatherDisplay:10.37 W/m2 FEW
09:51 -15.7 °C -16.2 °C 33650.1 hPa SE 3.7 km/h 7.7 km/h 94% 0 mm WeatherDisplay:10.37 W/m2 FEW
09:56 -15.7 °C -16.2 °C 33660.2 hPa WSW 2.1 km/h 9 km/h 94% 0 mm WeatherDisplay:10.37 W/m2 FEW
10:01 -15.7 °C -16.2 °C 33650.1 hPa SSE 8.5 km/h 41.7 km/h 94% 0 mm WeatherDisplay:10.37 W/m2 FEW
10:06 -15.7 °C -16.2 °C 33650.1 hPa SW 8.5 km/h 29.8 km/h 94% 0 mm WeatherDisplay:10.37 W/m2 FEW
10:11 -15.7 °C -16.2 °C 33650.1 hPa NNW 5.1 km/h 15 km/h 94% 0 mm WeatherDisplay:10.37 W/m2 FEW
10:16 -15.6 °C -16.1 °C 33650.1 hPa WNW 2.3 km/h 9 km/h 94% 0 mm WeatherDisplay:10.37 W/m2 FEW
10:21 -15.7 °C -16.2 °C 33650.1 hPa SW 1.8 km/h 9 km/h 94% 0 mm WeatherDisplay:10.37 W/m2 FEW
10:26 -15.6 °C -16.1 °C 33660.2 hPa WNW 2.1 km/h 9 km/h 94% 0 mm WeatherDisplay:10.37 W/m2 FEW
10:31 -15.6 °C -16.1 °C 33660.2 hPa West 4.7 km/h 15.6 km/h 94% 0 mm WeatherDisplay:10.37 W/m2 FEW
10:36 -15.6 °C -16.1 °C 33660.2 hPa SSW 11.9 km/h 29.8 km/h 94% 0 mm WeatherDisplay:10.37 W/m2 FEW
10:41 -15.6 °C -16.1 °C 33660.2 hPa NW 4.7 km/h 20.9 km/h 94% 0 mm WeatherDisplay:10.37 W/m2 FEW
10:46 -15.6 °C -16.1 °C 33660.2 hPa WNW 0.5 km/h 6 km/h 94% 0 mm WeatherDisplay:10.37 W/m2 FEW
10:51 -15.6 °C -16.1 °C 33660.2 hPa North 1 km/h 3.1 km/h 94% 0 mm WeatherDisplay:10.37 W/m2 FEW
10:56 -15.6 °C -16.1 °C 33660.2 hPa Calm   11.9 km/h 94% 0 mm WeatherDisplay:10.37 W/m2 FEW
11:01 -15.6 °C -16.1 °C 33660.2 hPa SSE 8 km/h 20.9 km/h 94% 0 mm WeatherDisplay:10.37 W/m2 FEW
11:06 -15.6 °C -16.1 °C 33660.2 hPa SW 5 km/h 20.9 km/h 94% 0 mm WeatherDisplay:10.37 W/m2 FEW
11:11 -15.6 °C -16.1 °C 33673.8 hPa ENE 4.3 km/h 12.9 km/h 94% 0 mm WeatherDisplay:10.37 W/m2 FEW
11:16 -15.6 °C -16.1 °C 33673.8 hPa WNW 11.4 km/h 11.9 km/h 94% 0 mm WeatherDisplay:10.37 W/m2 FEW
11:21 -15.6 °C -16.1 °C 33673.8 hPa SW 2.3 km/h 15 km/h 94% 0 mm WeatherDisplay:10.37 W/m2 FEW
11:26 -15.6 °C -16.1 °C 33673.8 hPa SSW 7.2 km/h 15 km/h 94% 0 mm WeatherDisplay:10.37 W/m2 FEW
11:31 -15.6 °C -16.1 °C 33673.8 hPa SSW 2.1 km/h 32.8 km/h 94% 0 mm WeatherDisplay:10.37 W/m2 FEW
11:36 -15.6 °C -16.1 °C 33683.9 hPa South 6.3 km/h 23.8 km/h 94% 0 mm WeatherDisplay:10.37 W/m2 FEW
11:41 -15.6 °C -16.1 °C 33683.9 hPa NW 9.3 km/h 20.9 km/h 94% 0 mm WeatherDisplay:10.37 W/m2 FEW
11:46 -15.6 °C -16.1 °C 33683.9 hPa North 5.1 km/h 23.8 km/h 94% 0 mm WeatherDisplay:10.37 W/m2 FEW
11:51 -15.6 °C -16.1 °C 33683.9 hPa SSE 1.6 km/h 12.9 km/h 94% 0 mm WeatherDisplay:10.37 W/m2 FEW
11:56 -15.6 °C -16.1 °C 33683.9 hPa SSE 2.6 km/h 15 km/h 94% 0 mm WeatherDisplay:10.37 W/m2 FEW
12:01 -15.6 °C -16.1 °C 33694.1 hPa SSW 11.4 km/h 35.7 km/h 94% 0 mm WeatherDisplay:10.37 W/m2 FEW
12:06 -15.6 °C -16.1 °C 33694.1 hPa West 9.7 km/h 11.9 km/h 94% 0 mm WeatherDisplay:10.37 W/m2 FEW
12:11 -15.7 °C -16.2 °C 33694.1 hPa SE 11.4 km/h 20.9 km/h 94% 0 mm WeatherDisplay:10.37 W/m2 FEW
12:16 -15.6 °C -16.1 °C 33694.1 hPa West 8 km/h 23.8 km/h 94% 0 mm WeatherDisplay:10.37 W/m2 FEW
12:21 -15.6 °C -16.1 °C 33694.1 hPa West 8.9 km/h 17.9 km/h 94% 0 mm WeatherDisplay:10.37 W/m2 FEW
12:26 -15.6 °C -16.1 °C 33694.1 hPa NE 6.3 km/h 17.9 km/h 94% 0 mm WeatherDisplay:10.37 W/m2 FEW
12:31 -15.6 °C -16.1 °C 33694.1 hPa West 5.6 km/h 23.8 km/h 94% 0 mm WeatherDisplay:10.37 W/m2 FEW
12:36 -15.7 °C -16.2 °C 33694.1 hPa Calm   23.8 km/h 94% 0 mm WeatherDisplay:10.37 W/m2 FEW
12:41 -15.6 °C -16.1 °C 33694.1 hPa SSW 9.8 km/h 23.8 km/h 94% 0 mm WeatherDisplay:10.37 W/m2 FEW
12:46 -15.6 °C -16.2 °C 33694.1 hPa WSW 1 km/h 9 km/h 93% 0 mm WeatherDisplay:10.37 W/m2 FEW
12:51 -15.7 °C -16.2 °C 33694.1 hPa West 6.4 km/h 15.6 km/h 93% 0 mm WeatherDisplay:10.37 W/m2 FEW
12:56 -15.7 °C -16.2 °C 33694.1 hPa WNW 8.2 km/h 17.9 km/h 93% 0 mm WeatherDisplay:10.37 W/m2 FEW
13:01 -15.6 °C -16.2 °C 33694.1 hPa South 10.3 km/h 26.9 km/h 93% 0 mm WeatherDisplay:10.37 W/m2 FEW
13:06 -15.6 °C -16.2 °C 33694.1 hPa West 15 km/h 23.8 km/h 93% 0 mm WeatherDisplay:10.37 W/m2 FEW
13:11 -15.6 °C -16.2 °C 33694.1 hPa North 5.1 km/h 9 km/h 93% 0 mm WeatherDisplay:10.37 W/m2 FEW
13:16 -15.6 °C -16.2 °C 33694.1 hPa NNW 5 km/h 9 km/h 93% 0 mm WeatherDisplay:10.37 W/m2 FEW
13:21 -15.6 °C -16.2 °C 33694.1 hPa ESE 2.9 km/h 9 km/h 93% 0 mm WeatherDisplay:10.37 W/m2 FEW
13:26 -15.7 °C -16.2 °C 33694.1 hPa SSW 11.9 km/h 26.9 km/h 94% 0 mm WeatherDisplay:10.37 W/m2 FEW
13:31 -15.6 °C -16.1 °C 33694.1 hPa NNE 6.3 km/h 20.9 km/h 94% 0 mm WeatherDisplay:10.37 W/m2 FEW
13:36 -15.7 °C -16.2 °C 33694.1 hPa North 9.7 km/h 29.8 km/h 94% 0 mm WeatherDisplay:10.37 W/m2 FEW
13:41 -15.7 °C -16.2 °C 33694.1 hPa SW 6.4 km/h 26.9 km/h 94% 0 mm WeatherDisplay:10.37 W/m2 FEW
13:46 -15.7 °C -16.2 °C 33694.1 hPa SW 12.4 km/h 23.8 km/h 94% 0 mm WeatherDisplay:10.37 W/m2 FEW
13:51 -15.7 °C -16.2 °C 33694.1 hPa SSE 2.3 km/h 9 km/h 94% 0 mm WeatherDisplay:10.37 W/m2 FEW
13:56 -15.6 °C -16.1 °C 33694.1 hPa SSW 7.2 km/h 11.9 km/h 94% 0 mm WeatherDisplay:10.37 W/m2 FEW
14:01 -15.6 °C -16.1 °C 33694.1 hPa SSE 7.2 km/h 20.9 km/h 94% 0 mm WeatherDisplay:10.37 W/m2 FEW
14:06 -15.6 °C -16.1 °C 33694.1 hPa SE 2.6 km/h 9 km/h 94% 0 mm WeatherDisplay:10.37 W/m2 FEW
14:11 -15.6 °C -16.1 °C 33694.1 hPa SSE 2.6 km/h 18.2 km/h 94% 0 mm WeatherDisplay:10.37 W/m2 FEW
14:16 -15.6 °C -16.1 °C 33694.1 hPa South 12.7 km/h 26.9 km/h 94% 0 mm WeatherDisplay:10.37 W/m2 FEW
14:21 -15.7 °C -16.2 °C 33694.1 hPa East 4.2 km/h 11.9 km/h 94% 0 mm WeatherDisplay:10.37 W/m2 FEW
14:26 -15.7 °C -16.2 °C 33694.1 hPa SSW 10.9 km/h 20.9 km/h 94% 0 mm WeatherDisplay:10.37 W/m2 FEW
14:31 -15.7 °C -16.2 °C 33707.6 hPa SSW 7.7 km/h 26.9 km/h 94% 0 mm WeatherDisplay:10.37 W/m2 FEW
14:36 -15.7 °C -16.2 °C 33707.6 hPa West 9 km/h 26.9 km/h 94% 0 mm WeatherDisplay:10.37 W/m2 FEW
14:41 -15.7 °C -16.2 °C 33707.6 hPa South 2.9 km/h 10.3 km/h 94% 0 mm WeatherDisplay:10.37 W/m2 FEW
14:46 -15.6 °C -16.1 °C 33707.6 hPa West 8 km/h 32.8 km/h 94% 0 mm WeatherDisplay:10.37 W/m2 FEW
14:51 -15.6 °C -16.1 °C 33717.8 hPa SW 3.7 km/h 9 km/h 94% 0 mm WeatherDisplay:10.37 W/m2 FEW
14:56 -15.6 °C -16.1 °C 33717.8 hPa South 2.9 km/h 9 km/h 94% 0 mm WeatherDisplay:10.37 W/m2 FEW
15:01 -15.6 °C -16.1 °C 33717.8 hPa West 4.3 km/h 15 km/h 94% 0 mm WeatherDisplay:10.37 W/m2 FEW
15:06 -15.6 °C -16.2 °C 33717.8 hPa SE 6.8 km/h 15 km/h 93% 0 mm WeatherDisplay:10.37 W/m2 FEW
15:11 -15.7 °C -16.2 °C 33717.8 hPa South 1.8 km/h   93% 0 mm WeatherDisplay:10.37 W/m2 FEW
15:16 -15.7 °C -16.2 °C 33717.8 hPa SE 11.4 km/h 29.8 km/h 93% 0 mm WeatherDisplay:10.37 W/m2 FEW
15:21 -15.7 °C -16.2 °C 33717.8 hPa SW 7.6 km/h 17.9 km/h 93% 0 mm WeatherDisplay:10.37 W/m2 FEW
15:26 -15.7 °C -16.3 °C 33731.3 hPa South 6 km/h 23.8 km/h 93% 0 mm WeatherDisplay:10.37 W/m2 FEW
15:31 -15.7 °C -16.3 °C 33731.3 hPa WSW 2.1 km/h 17.9 km/h 93% 0 mm WeatherDisplay:10.37 W/m2 FEW
15:36 -15.7 °C -16.3 °C 33731.3 hPa North 1.3 km/h 11.9 km/h 93% 0 mm WeatherDisplay:10.37 W/m2 FEW
15:41 -15.7 °C -16.3 °C 33731.3 hPa ESE 3.9 km/h 23.3 km/h 93% 0 mm WeatherDisplay:10.37 W/m2 FEW
15:46 -15.7 °C -16.3 °C 33731.3 hPa SE 2.6 km/h 9 km/h 93% 0 mm WeatherDisplay:10.37 W/m2 FEW
15:51 -15.7 °C -16.2 °C 33731.3 hPa ENE 1.3 km/h 10.3 km/h 93% 0 mm WeatherDisplay:10.37 W/m2 FEW
15:56 -15.7 °C -16.2 °C 33731.3 hPa Calm   2.6 km/h 93% 0 mm WeatherDisplay:10.37 W/m2 FEW
16:01 -15.7 °C -16.2 °C 33741.5 hPa SSW 2.1 km/h 15.6 km/h 93% 0 mm WeatherDisplay:10.37 W/m2 FEW
16:06 -15.7 °C -16.2 °C 33741.5 hPa SSW 7.6 km/h 17.9 km/h 93% 0 mm WeatherDisplay:10.37 W/m2 FEW
16:11 -15.7 °C -16.2 °C 33741.5 hPa South 1 km/h 5.1 km/h 93% 0 mm WeatherDisplay:10.37 W/m2 FEW
16:16 -15.7 °C -16.3 °C 33751.6 hPa Calm   20.9 km/h 93% 0 mm WeatherDisplay:10.37 W/m2 FEW
16:21 -15.7 °C -16.3 °C 33751.6 hPa WSW 5.6 km/h 20.9 km/h 93% 0 mm WeatherDisplay:10.37 W/m2 FEW
16:26 -15.7 °C -16.3 °C 33751.6 hPa WSW 5 km/h 9 km/h 93% 0 mm WeatherDisplay:10.37 W/m2 FEW
16:31 -15.7 °C -16.3 °C 33751.6 hPa WSW 2.3 km/h 9 km/h 93% 0 mm WeatherDisplay:10.37 W/m2 FEW
16:36 -15.7 °C -16.3 °C 33751.6 hPa South 2.1 km/h 9 km/h 93% 0 mm WeatherDisplay:10.37 W/m2 FEW
16:41 -15.7 °C -16.3 °C 33765.2 hPa West 0.5 km/h 9 km/h 93% 0 mm WeatherDisplay:10.37 W/m2 FEW
16:46 -15.7 °C -16.3 °C 33765.2 hPa Calm   17.9 km/h 93% 0 mm WeatherDisplay:10.37 W/m2 FEW
16:51 -15.7 °C -16.3 °C 33751.6 hPa SSW 5.5 km/h 9 km/h 93% 0 mm WeatherDisplay:10.37 W/m2 FEW
16:56 -15.7 °C -16.3 °C 33765.2 hPa SSW 6.3 km/h 12.9 km/h 93% 0 mm WeatherDisplay:10.37 W/m2 FEW
17:01 -15.7 °C -16.3 °C 33765.2 hPa SW 0.3 km/h 9 km/h 93% 0 mm WeatherDisplay:10.37 W/m2 FEW
17:06 -15.7 °C -16.3 °C 33765.2 hPa SW 3.7 km/h 15 km/h 93% 0 mm WeatherDisplay:10.37 W/m2 FEW
17:11 -15.7 °C -16.3 °C 33765.2 hPa SE 3.9 km/h 11.9 km/h 93% 0 mm WeatherDisplay:10.37 W/m2 FEW
17:16 -15.7 °C -16.3 °C 33765.2 hPa WNW 1.3 km/h 6 km/h 93% 0 mm WeatherDisplay:10.37 W/m2 FEW
17:21 -15.7 °C -16.3 °C 33775.4 hPa WNW 0.3 km/h 29.8 km/h 93% 0 mm WeatherDisplay:10.37 W/m2 FEW
17:26 -15.7 °C -16.3 °C 33775.4 hPa SSW 0.8 km/h 11.9 km/h 93% 0 mm WeatherDisplay:10.37 W/m2 FEW
17:31 -15.7 °C -16.3 °C 33775.4 hPa Calm   9 km/h 93% 0 mm WeatherDisplay:10.37 W/m2 FEW
17:36 -15.7 °C -16.3 °C 33775.4 hPa ESE 2.3 km/h 9 km/h 93% 0 mm WeatherDisplay:10.37 W/m2 FEW
17:41 -15.7 °C -16.2 °C 33788.9 hPa South 0.3 km/h 2.6 km/h 93% 0 mm WeatherDisplay:10.37 W/m2 FEW
17:46 -15.6 °C -16.2 °C 33788.9 hPa West 5 km/h 15 km/h 93% 0 mm WeatherDisplay:10.37 W/m2 FEW
17:51 -15.6 °C -16.2 °C 33788.9 hPa NNE 3.1 km/h 10.3 km/h 93% 0 mm WeatherDisplay:10.37 W/m2 FEW
17:56 -15.6 °C -16.2 °C 33799.1 hPa Calm     93% 0 mm WeatherDisplay:10.37 W/m2 FEW
18:01 -15.7 °C -16.2 °C 33788.9 hPa NNE 2.1 km/h 11.9 km/h 93% 0 mm WeatherDisplay:10.37 W/m2 FEW
18:06 -15.6 °C -16.2 °C 33799.1 hPa East 2.3 km/h 20.9 km/h 93% 0 mm WeatherDisplay:10.37 W/m2 FEW
18:11 -15.6 °C -16.2 °C 33799.1 hPa West 3.1 km/h 7.7 km/h 93% 0 mm WeatherDisplay:10.37 W/m2 FEW
18:16 -15.6 °C -16.2 °C 33799.1 hPa SW 3.1 km/h 9 km/h 93% 0 mm WeatherDisplay:10.37 W/m2 FEW
18:21 -15.6 °C -16.2 °C 33799.1 hPa Calm     92% 0 mm WeatherDisplay:10.37 W/m2 FEW
18:26 -15.6 °C -16.2 °C 33799.1 hPa West 1.8 km/h 29.8 km/h 92% 0 mm WeatherDisplay:10.37 W/m2 FEW
18:31 -15.6 °C -16.3 °C 33799.1 hPa NW 4.2 km/h 9 km/h 92% 0 mm WeatherDisplay:10.37 W/m2 FEW
18:36 -15.7 °C -16.2 °C 33809.2 hPa SSE 0.5 km/h 9 km/h 93% 0 mm WeatherDisplay:10.37 W/m2 FEW
18:41 -15.7 °C -16.2 °C 33809.2 hPa Calm   11.9 km/h 93% 0 mm WeatherDisplay:10.37 W/m2 FEW
18:46 -15.6 °C -16.3 °C 33809.2 hPa West 2.1 km/h 9 km/h 92% 0 mm WeatherDisplay:10.37 W/m2 FEW
18:51 -15.6 °C -16.2 °C 33822.8 hPa NW 5.6 km/h 9 km/h 93% 0 mm WeatherDisplay:10.37 W/m2 FEW
18:56 -15.6 °C -16.2 °C 33822.8 hPa West 4.2 km/h 15 km/h 93% 0 mm WeatherDisplay:10.37 W/m2 FEW
19:01 -15.6 °C -16.2 °C 33822.8 hPa SW 5.1 km/h 15 km/h 92% 0 mm WeatherDisplay:10.37 W/m2 FEW
19:06 -15.6 °C -16.2 °C 33822.8 hPa SSW 1.8 km/h 20.9 km/h 92% 0 mm WeatherDisplay:10.37 W/m2 FEW
19:11 -15.6 °C -16.3 °C 33822.8 hPa West 6.4 km/h 17.9 km/h 92% 0 mm WeatherDisplay:10.37 W/m2 FEW
19:16 -15.6 °C -16.3 °C 33822.8 hPa South 2.3 km/h 23.8 km/h 92% 0 mm WeatherDisplay:10.37 W/m2 FEW
19:21 -15.7 °C -16.3 °C 33822.8 hPa SE 5 km/h 11.9 km/h 92% 0 mm WeatherDisplay:10.37 W/m2 FEW
19:26 -15.7 °C -16.2 °C 33832.9 hPa SW 3.4 km/h 20.8 km/h 93% 0 mm WeatherDisplay:10.37 W/m2 FEW
19:31 -15.6 °C -16.3 °C 33832.9 hPa SW 10.1 km/h 15 km/h 92% 0 mm WeatherDisplay:10.37 W/m2 FEW
19:36 -15.6 °C -16.2 °C 33832.9 hPa WSW 3.9 km/h 23.8 km/h 93% 0 mm WeatherDisplay:10.37 W/m2 FEW
19:41 -15.6 °C -16.3 °C 33843.1 hPa WSW 3.7 km/h 9 km/h 92% 0 mm WeatherDisplay:10.37 W/m2 FEW
19:46 -15.6 °C -16.3 °C 33843.1 hPa NW 2.6 km/h 11.9 km/h 92% 0 mm WeatherDisplay:10.37 W/m2 FEW
19:51 -15.6 °C -16.3 °C 33843.1 hPa SSW 1.8 km/h 9 km/h 92% 0 mm WeatherDisplay:10.37 W/m2 FEW
19:56 -15.7 °C -16.3 °C 33856.6 hPa NE 3.1 km/h 9 km/h 92% 0 mm WeatherDisplay:10.37 W/m2 FEW
20:01 -15.7 °C -16.3 °C 33856.6 hPa ESE 5 km/h 23.3 km/h 92% 0 mm WeatherDisplay:10.37 W/m2 FEW
20:06 -15.7 °C -16.3 °C 33856.6 hPa SW 2.9 km/h 6 km/h 92% 0 mm WeatherDisplay:10.37 W/m2 FEW
20:11 -15.7 °C -16.3 °C 33856.6 hPa West 5.1 km/h 9 km/h 92% 0 mm WeatherDisplay:10.37 W/m2 FEW
20:16 -15.7 °C -16.3 °C 33856.6 hPa Calm   9 km/h 92% 0 mm WeatherDisplay:10.37 W/m2 FEW
20:21 -15.7 °C -16.3 °C 33866.8 hPa Calm     92% 0 mm WeatherDisplay:10.37 W/m2 FEW
20:26 -15.7 °C -16.4 °C 33866.8 hPa SE 2.6 km/h 9 km/h 92% 0 mm WeatherDisplay:10.37 W/m2 FEW
20:31 -15.7 °C -16.3 °C 33866.8 hPa WSW 3.1 km/h 6 km/h 93% 0 mm WeatherDisplay:10.37 W/m2 FEW
20:36 -15.7 °C -16.3 °C 33866.8 hPa Calm   11.9 km/h 93% 0 mm WeatherDisplay:10.37 W/m2 FEW
20:41 -15.8 °C -16.4 °C 33866.8 hPa West 1.8 km/h 7.7 km/h 92% 0 mm WeatherDisplay:10.37 W/m2 FEW
20:46 -15.8 °C -16.5 °C 33866.8 hPa Calm     92% 0 mm WeatherDisplay:10.37 W/m2 FEW
20:51 -15.8 °C -16.4 °C 33880.3 hPa West 6.4 km/h 9 km/h 93% 0 mm WeatherDisplay:10.37 W/m2 FEW
20:56 -15.9 °C -16.5 °C 33880.3 hPa West 3.1 km/h 9 km/h 92% 0 mm WeatherDisplay:10.37 W/m2 FEW
21:01 -15.9 °C -16.4 °C 33880.3 hPa SSE 7.6 km/h 7.6 km/h 93% 0 mm WeatherDisplay:10.37 W/m2 FEW
21:06 -15.9 °C -16.5 °C 33890.5 hPa NW 0.3 km/h 11.9 km/h 93% 0 mm WeatherDisplay:10.37 W/m2 FEW
21:11 -15.9 °C -16.5 °C 33890.5 hPa NNW 1.3 km/h   93% 0 mm WeatherDisplay:10.37 W/m2 FEW
21:16 -15.9 °C -16.5 °C 33890.5 hPa Calm   9 km/h 93% 0 mm WeatherDisplay:10.37 W/m2 FEW
21:21 -16 °C -16.6 °C 33890.5 hPa East 1 km/h 9 km/h 93% 0 mm WeatherDisplay:10.37 W/m2 FEW
21:26 -16 °C -16.6 °C 33890.5 hPa SSE 2.3 km/h   93% 0 mm WeatherDisplay:10.37 W/m2 FEW
21:31 -16.1 °C -16.6 °C 33890.5 hPa SE 0.8 km/h 2.6 km/h 93% 0 mm WeatherDisplay:10.37 W/m2 FEW
21:36 -16.1 °C -16.7 °C 33890.5 hPa WNW 3.7 km/h 10.3 km/h 93% 0 mm WeatherDisplay:10.37 W/m2 FEW
21:41 -16.2 °C -16.7 °C 33900.6 hPa West 2.6 km/h 3.1 km/h 93% 0 mm WeatherDisplay:10.37 W/m2 FEW
21:46 -16.1 °C -16.7 °C 33900.6 hPa West 0.3 km/h 6 km/h 93% 0 mm WeatherDisplay:10.37 W/m2 FEW
21:51 -16.1 °C -16.6 °C 33900.6 hPa NW 1.6 km/h 9 km/h 93% 0 mm WeatherDisplay:10.37 W/m2 FEW
21:56 -16.1 °C -16.6 °C 33914.2 hPa Calm   11.9 km/h 93% 0 mm WeatherDisplay:10.37 W/m2 FEW
22:01 -16.1 °C -16.6 °C 33914.2 hPa Calm     93% 0 mm WeatherDisplay:10.37 W/m2 FEW
22:06 -16.1 °C -16.6 °C 33914.2 hPa WNW 2.6 km/h 9 km/h 93% 0 mm WeatherDisplay:10.37 W/m2 FEW
22:11 -16.1 °C -16.6 °C 33914.2 hPa West 0.8 km/h   93% 0 mm WeatherDisplay:10.37 W/m2 FEW
22:16 -16.1 °C -16.6 °C 33914.2 hPa NNE 1.6 km/h   93% 0 mm WeatherDisplay:10.37 W/m2 FEW
22:21 -16.1 °C -16.7 °C 33924.3 hPa Calm     93% 0 mm WeatherDisplay:10.37 W/m2 FEW
22:26 -16.2 °C -16.7 °C 33924.3 hPa Calm     93% 0 mm WeatherDisplay:10.37 W/m2 FEW
22:31 -16.2 °C -16.7 °C 33937.9 hPa SSE 0.3 km/h 3.1 km/h 93% 0 mm WeatherDisplay:10.37 W/m2 FEW
22:36 -16.2 °C -16.8 °C 33937.9 hPa Calm     93% 0 mm WeatherDisplay:10.37 W/m2 FEW
22:41 -16.3 °C -16.9 °C 33937.9 hPa Calm     93% 0 mm WeatherDisplay:10.37 W/m2 FEW
22:46 -16.4 °C -17 °C 33937.9 hPa South 1.6 km/h 15 km/h 93% 0 mm WeatherDisplay:10.37 W/m2 FEW
22:51 -16.5 °C -17.1 °C 33948 hPa Calm   3.1 km/h 93% 0 mm WeatherDisplay:10.37 W/m2 FEW
22:56 -16.5 °C -17.1 °C 33948 hPa SSE 2.1 km/h 11.9 km/h 93% 0 mm WeatherDisplay:10.37 W/m2 FEW
23:01 -16.4 °C -17 °C 33948 hPa NNW 1.6 km/h 9 km/h 93% 0 mm WeatherDisplay:10.37 W/m2 FEW
23:06 -16.4 °C -17 °C 33948 hPa NNE 0.3 km/h 9 km/h 93% 0 mm WeatherDisplay:10.37 W/m2 FEW
23:11 -16.4 °C -17 °C 33958.2 hPa Calm     93% 0 mm WeatherDisplay:10.37 W/m2 FEW
23:16 -16.5 °C -17.1 °C 33958.2 hPa Calm   9 km/h 93% 0 mm WeatherDisplay:10.37 W/m2 FEW
23:21 -16.5 °C -17 °C 33958.2 hPa Calm     94% 0 mm WeatherDisplay:10.37 W/m2 FEW
23:26 -16.6 °C -17.1 °C 33958.2 hPa Calm     94% 0 mm WeatherDisplay:10.37 W/m2 FEW
23:31 -16.6 °C -17.1 °C 33971.7 hPa Calm     94% 0 mm WeatherDisplay:10.37 W/m2 FEW
23:36 -16.6 °C -17.2 °C 33971.7 hPa Calm     93% 0 mm WeatherDisplay:10.37 W/m2 FEW
23:41 -16.6 °C -17.1 °C 33971.7 hPa SSE 2.9 km/h 3.1 km/h 94% 0 mm WeatherDisplay:10.37 W/m2 FEW
23:46 -16.6 °C -17.1 °C 33971.7 hPa NW 1.8 km/h 5.1 km/h 94% 0 mm WeatherDisplay:10.37 W/m2 FEW
23:51 -16.6 °C -17.1 °C 33971.7 hPa Calm     94% 0 mm WeatherDisplay:10.37 W/m2 FEW
23:56 -16.6 °C -17.1 °C 33981.9 hPa WNW 3.1 km/h 17.9 km/h 94% 0 mm WeatherDisplay:10.37 W/m2 FEW
Tuulensuunkaari, Veikkola, Suomi
Compliments of Weather Underground - 2.75 mb